User: anonymous   Login
Location: Summit Observatory
(39.5293°N, 75.7290°W)
Time: 07:32:11
(UTC-05:00)
Language:

XW-2F - Orbit

View from above orbital plane
View from above orbital plane
View from above satellite
View from above satellite

Ground track
Ground track

The orbit data is extracted from the following two-line orbital elements,

1 40910U 15049M   19323.25124164  .00001050  00000-0  55581-4 0  9990
2 40910  97.4658 324.7604 0015321  21.8489  33.5378 15.17541212230301
Epoch (UTC): 19 November 2019 06:01:47
Eccentricity: 0.0015321
inclination: 97.4658°
perigee height: 503 km
apogee height: 524 km
right ascension of ascending node: 324.7604°
argument of perigee: 21.8489°
revolutions per day: 15.17541212
mean anomaly at epoch: 33.5378°
orbit number at epoch: 23030

The dashed part of the orbit path shows where the satellite is in the earth's shadow,  

DLR